W1SCW Weather Reports


time (UTC)temp
C
wind
direction
speed
KPH
gust
KPH
rain 1hr
cm
rain 24hr
cm
rain mn
cm
humidity
%
barometer
mb
20260506181655 29 108 6.4 6.4 0.00 0.00 0.00 77 1008.4
20260506181152 30 163 3.2 8.0 0.00 0.00 0.00 78 1008.5
20260506180649 30 219 8.0 8.0 0.00 0.00 0.00 77 1008.5
20260506180140 29 95 1.6 6.4 0.00 0.00 0.00 77 1008.6
20260506175637 29 159 1.6 3.2 0.00 0.00 0.00 79 1008.7
20260506175132 28 185 1.6 4.8 0.00 0.00 0.00 80 1009.0
20260506174631 28 172 3.2 4.8 0.00 0.00 0.00 81 1008.9
20260506174127 27 203 3.2 4.8 0.00 0.00 0.00 82 1009.0
20260506173625 27 15 1.6 3.2 0.00 0.00 0.00 84 1009.1
20260506173121 27 86 1.6 4.8 0.00 0.00 0.00 84 1009.2
20260506172619 27 165 3.2 4.8 0.00 0.00 0.00 83 1009.4
20260506172110 27 120 6.4 8.0 0.00 0.00 0.00 83 1009.3
20260506171608 27 134 4.8 4.8 0.00 0.00 0.00 84 1009.2
20260506171105 27 203 3.2 4.8 0.00 0.00 0.00 84 1009.3
20260506170601 27 168 4.8 8.0 0.00 0.00 0.00 84 1009.3
20260506170053 27 208 3.2 8.0 0.00 0.00 0.00 84 1009.5
20260506165552 27 195 3.2 9.7 0.00 0.00 0.00 84 1009.3
20260506165048 27 253 0.0 8.0 0.00 0.00 0.00 85 1009.6
20260506164544 27 187 3.2 4.8 0.00 0.00 0.00 84 1009.3
20260506164041 27 150 3.2 9.7 0.00 0.00 0.00 85 1009.6
20260506163532 27 148 3.2 8.0 0.00 0.00 0.00 84 1009.5
20260506163027 27 180 3.2 6.4 0.00 0.00 0.00 84 1009.1
20260506162524 27 89 1.6 3.2 0.00 0.00 0.00 85 1009.2
20260506162015 27 197 3.2 6.4 0.00 0.00 0.00 84 1009.3
20260506161513 27 170 3.2 4.8 0.00 0.00 0.00 83 1008.8
20260506161010 27 148 6.4 8.0 0.00 0.00 0.00 83 1008.8
20260506160508 27 81 0.0 8.0 0.00 0.00 0.00 83 1008.8
20260506160005 27 224 3.2 8.0 0.00 0.00 0.00 84 1008.9
20260506155503 27 137 3.2 4.8 0.00 0.00 0.00 85 1009.0
20260506153634 27 173 3.2 4.8 0.00 0.00 0.00 86 1008.6
20260506153131 26 172 3.2 6.4 0.00 0.00 0.00 86 1008.8
20260506152628 27 177 3.2 4.8 0.00 0.00 0.00 86 1008.8
20260506152126 27 129 0.0 6.4 0.00 0.00 0.00 86 1008.7
20260506151624 27 127 3.2 4.8 0.00 0.00 0.00 85 1008.5
20260506151121 26 150 3.2 9.7 0.00 0.00 0.00 85 1008.5
20260506150618 27 139 0.0 4.8 0.00 0.00 0.00 86 1008.4
20260506150114 26 182 1.6 6.4 0.00 0.00 0.00 86 1008.3
20260506145611 26 147 3.2 9.7 0.00 0.00 0.00 87 1008.5
20260506145108 26 163 4.8 9.7 0.00 0.00 0.00 87 1008.2
20260506144605 26 152 6.4 9.7 0.00 0.00 0.00 87 1007.9
20260506144102 26 143 8.0 11.3 0.00 0.00 0.00 88 1008.1
20260506143600 26 175 3.2 8.0 0.00 0.00 0.00 88 1007.9
20260506143058 26 160 4.8 6.4 0.00 0.00 0.00 89 1007.8
20260506142555 26 181 0.0 6.4 0.00 0.00 0.00 90 1008.0
20260506142054 26 105 1.6 8.0 0.00 0.00 0.00 90 1007.8
20260506141551 26 155 1.6 8.0 0.00 0.00 0.00 91 1007.9
20260506141049 25 180 1.6 6.4 0.00 0.00 0.00 92 1007.8
20260506140546 25 141 4.8 9.7 0.00 0.00 0.00 91 1007.9
20260506140044 25 174 3.2 4.8 0.00 0.00 0.00 92 1008.1
20260506135540 25 167 3.2 6.4 0.00 0.00 0.00 92 1008.3
20260506135036 25 122 1.6 4.8 0.00 0.00 0.00 93 1007.9
20260506134533 25 89 0.0 3.2 0.00 0.00 0.00 93 1008.2
20260506134029 25 140 1.6 4.8 0.00 0.00 0.00 93 1008.0
20260506133526 25 189 0.0 6.4 0.00 0.00 0.00 94 1008.1
20260506133023 25 181 3.2 4.8 0.00 0.00 0.00 94 1008.2
20260506132520 25 88 0.0 6.4 0.00 0.00 0.00 95 1008.2
20260506132018 25 166 3.2 4.8 0.00 0.00 0.00 95 1008.2
20260506131515 25 130 3.2 8.0 0.00 0.00 0.00 96 1008.5
20260506131011 25 127 0.0 3.2 0.00 0.00 0.00 96 1008.3
20260506130508 24 166 1.6 8.0 0.00 0.00 0.00 96 1008.2
20260506130006 24 159 3.2 6.4 0.00 0.00 0.00 97 1008.3
20260506125504 24 320 0.0 6.4 0.00 0.00 0.00 97 1008.1
20260506125001 24 198 0.0 1.6 0.00 0.00 0.00 98 1008.3
20260506124459 24 152 3.2 6.4 0.00 0.00 0.00 98 1008.2
20260506123957 23 264 0.0 4.8 0.00 0.00 0.00 98 1008.1
20260506123454 23 200 3.2 4.8 0.00 0.00 0.00 98 1008.1
20260506122952 23 205 0.0 3.2 0.00 0.00 0.00 98 1008.1
20260506122448 23 173 0.0 3.2 0.00 0.00 0.00 98 1008.0
20260506121947 23 202 3.2 4.8 0.00 0.00 0.00 98 1007.9
20260506121443 23 191 0.0 4.8 0.00 0.00 0.00 98 1007.9
20260506120940 23 213 0.0 3.2 0.00 0.00 0.00 98 1007.9
20260506120438 23 200 3.2 3.2 0.00 0.00 0.00 98 1007.9
20260506115935 23 214 1.6 3.2 0.00 0.00 0.00 98 1007.7
20260506115433 23 192 3.2 3.2 0.00 0.00 0.00 98 1007.4
20260506114931 23 297 0.0 3.2 0.00 0.00 0.00 98 1007.5
20260506114428 23 212 3.2 3.2 0.00 0.00 0.00 98 1007.5
20260506113927 23 322 0.0 1.6 0.00 0.00 0.00 98 1007.7
20260506113425 23 293 0.0 3.2 0.00 0.00 0.00 98 1007.6
20260506112921 23 277 1.6 1.6 0.00 0.00 0.00 98 1007.4
20260506112419 23 228 3.2 3.2 0.00 0.00 0.00 98 1007.4
20260506111915 23 245 1.6 3.2 0.00 0.00 0.00 98 1007.3
20260506111413 23 324 0.0 4.8 0.00 0.00 0.00 98 1007.2
20260506110910 23 205 0.0 6.4 0.00 0.00 0.00 98 1007.2
20260506110408 23 277 0.0 3.2 0.00 0.00 0.00 97 1007.0
20260506105904 23 221 3.2 3.2 0.00 0.00 0.00 97 1006.9
20260506105400 23 284 3.2 6.4 0.00 0.00 0.00 97 1007.1
20260506104858 23 53 0.0 4.8 0.00 0.00 0.00 97 1006.8
20260506104356 23 184 4.8 8.0 0.00 0.00 0.00 97 1006.8
20260506103853 23 96 0.0 6.4 0.00 0.00 0.00 96 1006.9
20260506103351 23 245 0.0 4.8 0.00 0.00 0.00 96 1006.9
20260506102848 23 134 0.0 6.4 0.00 0.00 0.00 96 1006.9
20260506102346 23 218 1.6 3.2 0.00 0.00 0.00 96 1007.0
20260506101843 23 172 4.8 6.4 0.00 0.00 0.00 96 1006.9
20260506101338 23 220 1.6 4.8 0.00 0.00 0.00 96 1006.9
20260506100836 23 253 1.6 3.2 0.00 0.00 0.00 95 1007.0
20260506100335 23 214 1.6 4.8 0.00 0.00 0.00 95 1006.8
20260506095833 23 236 4.8 9.7 0.00 0.00 0.00 95 1006.8
20260506095330 24 180 6.4 8.0 0.00 0.00 0.00 95 1006.7
20260506094826 23 214 4.8 8.0 0.00 0.00 0.00 95 1006.5
20260506094325 23 175 4.8 6.4 0.00 0.00 0.00 95 1006.8
20260506093823 24 149 4.8 9.7 0.00 0.00 0.00 94 1006.5
20260506093320 24 153 0.0 9.7 0.00 0.00 0.00 94 1006.6
20260506092818 24 218 4.8 8.0 0.00 0.00 0.00 94 1006.5
20260506092315 24 166 3.2 6.4 0.00 0.00 0.00 94 1006.5
20260506091812 24 144 3.2 6.4 0.00 0.00 0.00 94 1006.4
20260506091310 24 179 4.8 6.4 0.00 0.00 0.00 94 1006.6
20260506090807 24 162 3.2 8.0 0.00 0.00 0.00 94 1006.5
20260506090304 24 160 8.0 14.5 0.00 0.00 0.00 93 1006.6
20260506085801 24 162 4.8 12.9 0.00 0.00 0.00 93 1006.6
20260506085257 25 205 4.8 6.4 0.00 0.00 0.00 93 1006.7
20260506084754 24 119 3.2 9.7 0.00 0.00 0.00 93 1006.8
20260506084250 24 180 3.2 6.4 0.00 0.00 0.00 93 1006.9
20260506083747 24 166 1.6 6.4 0.00 0.00 0.00 93 1006.7
20260506083245 25 167 4.8 8.0 0.00 0.00 0.00 93 1006.8
20260506082742 25 140 3.2 9.7 0.00 0.00 0.00 93 1006.9
20260506082237 24 138 4.8 8.0 0.00 0.00 0.00 93 1007.0
20260506081736 24 177 3.2 6.4 0.00 0.00 0.00 93 1006.8
20260506081233 25 211 3.2 4.8 0.00 0.00 0.00 93 1006.9
20260506080731 25 201 3.2 6.4 0.00 0.00 0.00 93 1007.1
20260506080227 25 183 6.4 8.0 0.00 0.00 0.00 93 1007.0
20260506073211 25 150 0.0 3.2 0.00 0.00 0.00 93 1007.3
20260506072708 25 166 3.2 4.8 0.00 0.00 0.00 93 1007.3
20260506072205 25 272 0.0 3.2 0.00 0.00 0.00 92 1007.6
20260506071702 25 190 3.2 8.0 0.00 0.00 0.00 92 1007.5
20260506071200 25 148 4.8 9.7 0.00 0.00 0.00 92 1007.7
20260506070657 25 184 3.2 6.4 0.00 0.00 0.00 92 1007.7
20260506070154 25 202 4.8 8.0 0.00 0.00 0.00 92 1007.6
20260506062131 25 193 6.4 9.7 0.00 0.00 0.00 93 1007.8
20260506061627 25 203 1.6 14.5 0.00 0.00 0.00 93 1007.8
20260506061125 25 175 6.4 12.9 0.00 0.00 0.00 93 1007.6
20260506060623 25 200 0.0 11.3 0.00 0.00 0.00 93 1007.7
20260506060120 25 258 1.6 9.7 0.00 0.00 0.00 93 1007.7
20260506051052 25 173 6.4 6.4 0.00 0.00 0.00 92 1007.8
20260506050549 25 162 6.4 11.3 0.00 0.00 0.00 92 1007.8
20260506045040 25 163 3.2 8.0 0.00 0.00 0.00 91 1007.7
20260506044538 25 164 8.0 12.9 0.00 0.00 0.00 91 1007.6
20260506044035 25 163 4.8 9.7 0.00 0.00 0.00 91 1007.6
20260506043531 25 177 6.4 8.0 0.00 0.00 0.00 91 1007.8
20260506043030 25 169 3.2 6.4 0.00 0.00 0.00 90 1007.8
20260506042529 25 207 3.2 9.7 0.00 0.00 0.00 90 1007.7
20260506042027 25 194 3.2 9.7 0.00 0.00 0.00 89 1007.7
20260506041525 25 181 1.6 6.4 0.00 0.00 0.00 89 1007.7
20260506041021 25 146 1.6 9.7 0.00 0.00 0.00 88 1007.6
20260506040519 25 153 6.4 8.0 0.00 0.00 0.00 88 1007.8
20260506040015 25 188 3.2 6.4 0.00 0.00 0.00 88 1007.5
20260506035512 25 156 6.4 9.7 0.00 0.00 0.00 88 1007.6
20260506035008 25 196 4.8 9.7 0.00 0.00 0.00 88 1007.4
20260506034506 25 198 8.0 9.7 0.00 0.00 0.00 87 1007.4
20260506034003 25 190 8.0 9.7 0.00 0.00 0.00 87 1007.5
20260506033500 25 162 6.4 9.7 0.00 0.00 0.00 87 1007.5
20260506032957 25 176 4.8 6.4 0.00 0.00 0.00 87 1007.4
20260506032455 25 225 3.2 9.7 0.00 0.00 0.00 87 1007.3
20260506031950 25 190 6.4 9.7 0.00 0.00 0.00 87 1007.0
20260506031448 25 166 3.2 11.3 0.00 0.00 0.00 87 1007.0
20260506030946 25 161 4.8 8.0 0.00 0.00 0.00 87 1006.7
20260506030444 25 180 4.8 14.5 0.00 0.00 0.00 87 1007.0
20260506025940 25 152 3.2 8.0 0.00 0.00 0.00 86 1006.8
20260506025437 25 35 1.6 12.9 0.00 0.00 0.00 86 1006.9
20260506024934 25 157 6.4 17.7 0.00 0.00 0.00 86 1006.9
20260506024431 25 158 6.4 11.3 0.00 0.00 0.00 86 1006.9
20260506023926 25 96 4.8 9.7 0.00 0.00 0.00 86 1006.7
20260506023424 26 118 8.0 16.1 0.00 0.00 0.00 86 1006.6
20260506022920 26 179 4.8 12.9 0.00 0.00 0.00 86 1006.3
20260506022418 26 189 8.0 9.7 0.00 0.00 0.00 85 1006.2
20260506021916 26 177 6.4 12.9 0.00 0.00 0.00 85 1006.1
20260506021413 26 186 1.6 9.7 0.00 0.00 0.00 84 1006.5
20260506020909 26 171 0.0 3.2 0.00 0.00 0.00 84 1006.2
20260506020408 26 140 4.8 12.9 0.00 0.00 0.00 84 1006.3
20260506015904 26 136 4.8 8.0 0.00 0.00 0.00 84 1006.0
20260506015402 26 184 4.8 8.0 0.00 0.00 0.00 83 1006.3
20260506014859 26 165 6.4 11.3 0.00 0.00 0.00 83 1005.9
20260506014355 26 169 3.2 12.9 0.00 0.00 0.00 83 1006.2
20260506013852 26 148 4.8 9.7 0.00 0.00 0.00 83 1005.9
20260506013350 26 150 3.2 8.0 0.00 0.00 0.00 82 1005.9
20260506012846 26 174 4.8 8.0 0.00 0.00 0.00 82 1005.8
20260506012343 26 180 4.8 6.4 0.00 0.00 0.00 82 1005.7
20260506011840 26 234 0.0 6.4 0.00 0.00 0.00 82 1005.8
20260506011337 26 169 4.8 8.0 0.00 0.00 0.00 81 1005.5
20260506010834 26 155 3.2 9.7 0.00 0.00 0.00 81 1005.6
20260506010332 26 166 3.2 11.3 0.00 0.00 0.00 81 1005.4
20260506005829 26 158 3.2 8.0 0.00 0.00 0.00 81 1005.3
20260506005326 26 136 1.6 4.8 0.00 0.00 0.00 81 1005.1
20260506004821 26 173 6.4 11.3 0.00 0.00 0.00 80 1005.3
20260506004319 26 163 6.4 6.4 0.00 0.00 0.00 80 1005.1
20260506003815 26 161 4.8 8.0 0.00 0.00 0.00 79 1005.2
20260506003312 26 157 11.3 14.5 0.00 0.00 0.00 79 1005.4
20260506002808 27 172 6.4 8.0 0.00 0.00 0.00 79 1005.2
20260506002306 27 146 6.4 9.7 0.00 0.00 0.00 78 1005.3
20260506001800 27 162 6.4 22.5 0.00 0.00 0.00 79 1004.9
20260506001258 27 151 6.4 12.9 0.00 0.00 0.00 79 1005.1
20260506000754 27 150 8.0 12.9 0.00 0.00 0.00 79 1005.1
20260506000254 27 166 4.8 14.5 0.00 0.00 0.00 78 1005.1
20260505235749 27 102 4.8 14.5 0.00 0.00 0.00 78 1005.1
20260505235246 27 192 3.2 8.0 0.00 0.00 0.00 78 1005.1
20260505234743 27 150 9.7 19.3 0.00 0.00 0.00 77 1005.0
20260505234241 27 170 8.0 19.3 0.00 0.00 0.00 77 1005.0
20260505233737 27 159 14.5 19.3 0.00 0.00 0.00 76 1005.0
20260505233236 27 162 4.8 12.9 0.00 0.00 0.00 77 1004.8
20260505232732 27 167 6.4 19.3 0.00 0.00 0.00 77 1005.0
20260505232230 27 142 9.7 16.1 0.00 0.00 0.00 77 1004.8
20260505231726 27 174 4.8 14.5 0.00 0.00 0.00 77 1005.0
20260505231225 27 149 6.4 14.5 0.00 0.00 0.00 78 1005.0
20260505230723 27 148 4.8 17.7 0.00 0.00 0.00 78 1005.0
20260505230219 27 75 3.2 14.5 0.00 0.00 0.00 77 1005.0
20260505225716 28 159 6.4 14.5 0.00 0.00 0.00 77 1005.1
20260505225213 27 145 8.0 16.1 0.00 0.00 0.00 77 1005.1
20260505224708 28 116 1.6 8.0 0.00 0.00 0.00 77 1005.2
20260505224206 28 75 3.2 9.7 0.00 0.00 0.00 77 1004.8
20260505223703 28 188 4.8 9.7 0.00 0.00 0.00 76 1005.1
20260505223159 28 216 3.2 11.3 0.00 0.00 0.00 77 1005.3
20260505222655 28 152 4.8 11.3 0.00 0.00 0.00 75 1004.9
20260505222152 28 208 1.6 16.1 0.00 0.00 0.00 75 1005.3
20260505221649 28 176 8.0 17.7 0.00 0.00 0.00 74 1005.0
20260505221145 28 156 6.4 14.5 0.00 0.00 0.00 74 1005.0
20260505220643 28 141 3.2 11.3 0.00 0.00 0.00 74 1005.1
20260505220140 28 159 6.4 16.1 0.00 0.00 0.00 74 1005.4
20260505215638 28 304 4.8 12.9 0.00 0.00 0.00 75 1005.4
20260505215136 28 207 6.4 8.0 0.00 0.00 0.00 75 1005.3
20260505214634 28 178 6.4 29.0 0.00 0.00 0.00 75 1005.6
20260505214130 29 82 0.0 6.4 0.00 0.00 0.00 75 1005.6
20260505213628 28 158 9.7 11.3 0.00 0.00 0.00 74 1005.5
20260505213124 28 202 6.4 12.9 0.00 0.00 0.00 74 1005.7
20260505212620 28 178 6.4 16.1 0.00 0.00 0.00 75 1005.6
20260505212119 29 126 1.6 12.9 0.00 0.00 0.00 71 1005.7
20260505211615 30 149 6.4 14.5 0.00 0.00 0.00 72 1005.7
20260505211112 29 149 4.8 14.5 0.00 0.00 0.00 72 1005.7
20260505210609 29 204 6.4 14.5 0.00 0.00 0.00 72 1005.9
20260505210106 29 210 4.8 16.1 0.00 0.00 0.00 72 1005.9
20260505205603 29 167 12.9 24.1 0.00 0.00 0.00 71 1005.9
20260505205101 28 155 6.4 16.1 0.00 0.00 0.00 73 1006.0
20260505204558 29 142 6.4 17.7 0.00 0.00 0.00 72 1006.1
20260505204055 29 183 12.9 20.9 0.00 0.00 0.00 72 1006.2
20260505203551 29 175 12.9 17.7 0.00 0.00 0.00 71 1006.3
20260505203049 29 212 9.7 14.5 0.00 0.00 0.00 72 1006.3
20260505202545 29 146 3.2 16.1 0.00 0.00 0.00 72 1006.3
20260505202041 29 136 6.4 19.3 0.00 0.00 0.00 72 1006.4
20260505201538 30 205 6.4 17.7 0.00 0.00 0.00 71 1006.4
20260505201036 29 217 11.3 20.9 0.00 0.00 0.00 72 1006.7
20260505200533 28 177 6.4 12.9 0.00 0.00 0.00 73 1006.8
20260505200030 28 130 8.0 16.1 0.00 0.00 0.00 73 1006.9
20260505195526 28 158 6.4 11.3 0.00 0.00 0.00 74 1006.9
20260505195024 28 177 6.4 17.7 0.00 0.00 0.00 74 1006.7
20260505194515 28 149 9.7 17.7 0.00 0.00 0.00 73 1007.0
20260505194010 28 140 3.2 19.3 0.00 0.00 0.00 75 1007.0
20260505193508 28 209 9.7 17.7 0.00 0.00 0.00 75 1007.2
20260505193005 28 224 9.7 19.3 0.00 0.00 0.00 75 1007.0
20260505192504 28 213 4.8 16.1 0.00 0.00 0.00 74 1007.1
20260505192001 28 203 12.9 14.5 0.00 0.00 0.00 74 1007.1
20260505191459 28 162 9.7 16.1 0.00 0.00 0.00 73 1007.2
20260505190956 29 204 8.0 24.1 0.00 0.00 0.00 72 1007.1
20260505190451 29 195 6.4 14.5 0.00 0.00 0.00 73 1007.0
20260505185947 28 198 6.4 11.3 0.00 0.00 0.00 74 1007.2
20260505185444 28 159 12.9 19.3 0.00 0.00 0.00 74 1007.1
20260505184940 28 187 4.8 14.5 0.00 0.00 0.00 74 1007.4
20260505184437 28 220 3.2 14.5 0.00 0.00 0.00 75 1007.3
20260505183934 28 214 9.7 22.5 0.00 0.00 0.00 76 1007.4
20260505183431 27 172 6.4 9.7 0.00 0.00 0.00 77 1007.4
20260505182928 27 204 3.2 9.7 0.00 0.00 0.00 78 1007.4
20260505182425 27 166 4.8 11.3 0.00 0.00 0.00 79 1007.4